J Percy Priest Observed Data For Previous 48 Hours

Caption
Day and Hour Reservoir Elevation (behind dam)* Tailwater Elevation (below dam)* Average Hourly Discharge*
11/16/2017 1 AM CST 488.49 395.58 4,600
11/16/2017 2 AM CST 488.47 395.59 4,600
11/16/2017 3 AM CST 488.41 395.62 4,600
11/16/2017 4 AM CST 488.38 395.63 4,600
11/16/2017 5 AM CST 488.36 395.64 4,600
11/16/2017 6 AM CST 488.35 395.69 4,600
11/16/2017 7 AM CST 488.35 395.69 4,600
11/16/2017 8 AM CST 488.29 395.80 4,600
11/16/2017 9 AM CST 488.27 395.79 4,600
11/16/2017 10 AM CST 488.24 395.66 4,600
11/16/2017 11 AM CST 488.24 395.66 4,600
11/16/2017 12 PM CST 488.19 395.68 4,600
11/16/2017 1 PM CST 488.17 395.84 4,600
11/16/2017 2 PM CST 488.15 395.73 4,600
11/16/2017 3 PM CST 488.15 395.73 4,600
11/16/2017 4 PM CST 488.09 395.75 4,600
11/16/2017 5 PM CST 488.06 395.80 4,600
11/16/2017 6 PM CST 488.04 395.80 4,600
11/16/2017 7 PM CST 488.04 395.80 4,600
11/16/2017 8 PM CST 488.02 395.87 4,600
11/16/2017 9 PM CST 487.99 395.93 4,600
11/16/2017 10 PM CST 487.97 396.00 4,600
11/16/2017 11 PM CST 487.95 396.06 4,600
11/17/2017 12 AM CST 487.92 396.13 4,600
11/17/2017 1 AM CST 487.90 396.19 4,600
11/17/2017 2 AM CST 487.87 396.10 4,600
11/17/2017 3 AM CST 487.81 395.94 4,600
11/17/2017 4 AM CST 487.80 395.94 4,600
11/17/2017 5 AM CST 487.76 395.81 4,600
11/17/2017 6 AM CST 487.73 395.77 4,600
11/17/2017 7 AM CST 487.73 395.77 4,600
11/17/2017 8 AM CST 487.69 395.86 4,600
11/17/2017 9 AM CST 487.67 395.89 4,600
11/17/2017 10 AM CST 487.64 395.90 4,600
11/17/2017 11 AM CST 487.64 395.90 4,600
11/17/2017 12 PM CST 487.58 392.81 4,600
11/17/2017 1 PM CST 487.56 392.81 4,600
11/17/2017 2 PM CST 487.53 392.85 4,600
11/17/2017 3 PM CST 487.53 392.85 4,600
11/17/2017 4 PM CST 487.48 395.98 4,600
11/17/2017 5 PM CST 487.46 395.98 4,600
11/17/2017 6 PM CST 487.44 395.90 4,600
11/17/2017 7 PM CST 487.44 395.90 4,600
11/17/2017 8 PM CST 487.41 395.80 4,600
11/17/2017 9 PM CST 487.40 395.73 4,600
11/17/2017 10 PM CST 487.37 395.84 4,600
11/17/2017 11 PM CST 487.33 395.84 4,600
11/18/2017 12 AM CST 487.30 395.85 4,600
11/18/2017 1 AM CST 487.30 395.85 4,600
11/18/2017 2 AM CST 487.30 391.57 0
11/18/2017 3 AM CST 487.31 390.33 0
11/18/2017 4 AM CST 487.38 389.36 0
11/18/2017 5 AM CST 487.33 389.09 0
11/18/2017 6 AM CST 487.28 393.84 4,600
11/18/2017 7 AM CST 487.28 393.84 4,600

Elevations are in feet above sea level. Discharges are in cubic feet per second and are reported at the end of the hour.